Simultaneous Nadir Overpasses (SNOs) Predictions

Prediction of SNOs between GOES-16 and AQUA Satellite Orbit:

Table of predicted SNOs for the next 14.0 days since TLE Epoch: 2/21/2020
Index Date Time (GOES-16) GOES-16 Lat,Lon AQUA Lat,Lon Distance(km) Time Diff (sec)
1 02/23/2020 06:29:44 0.07, -75.15 -0.19, -73.87 145.15 80
2 02/23/2020 18:51:09 -0.07, -75.16 -0.87, -79.07 444.12 80
3 02/25/2020 06:17:34 0.07, -75.15 -0.83, -70.92 481.23 80
4 02/25/2020 18:38:58 -0.07, -75.16 -0.29, -76.10 107.81 80
5 02/27/2020 18:29:28 -0.07, -75.17 0.35, -73.15 229.18 80
6 02/28/2020 06:50:44 0.07, -75.16 0.76, -78.31 357.91 80
7 03/01/2020 06:38:34 0.07, -75.18 0.11, -75.36 20.49 80
8 03/03/2020 06:23:44 0.08, -75.19 -0.54, -72.41 317.18 80
9 03/03/2020 18:45:07 -0.08, -75.20 -0.56, -77.60 271.61 80
10 03/05/2020 18:35:36 -0.09, -75.22 0.03, -74.63 66.42 80




NCC Satellite Simultaneous Nadir Overpasses (SNOs) Prediction Service
